Time,TemperatureF,DewpointF,PressureIn,WindDirection,WindDirectionDegrees,WindSpeedMPH,WindSpeedGustMPH,Humidity,HourlyPrecipIn,Conditions,Clouds,dailyrainin,SoftwareType,DateUTC
2013-06-29 00:02:00,71.2,64.3,30.01,NNE,21,13.0,32.0,79,-0.01,,,0.00,Weather View 32 v70,2013-06-29 10:02:00,
2013-06-29 00:07:00,71.1,64.6,29.99,NNW,345,25.0,30.0,80,-0.01,,,0.00,Weather View 32 v70,2013-06-29 10:07:00,
2013-06-29 00:12:00,70.8,64.3,29.99,NW,324,19.0,30.0,80,-0.01,,,0.00,Weather View 32 v70,2013-06-29 10:12:00,
2013-06-29 00:17:00,70.8,64.3,29.99,NNW,328,27.0,30.0,80,-0.01,,,0.00,Weather View 32 v70,2013-06-29 10:17:00,
2013-06-29 00:22:00,71.2,64.0,29.98,North,1,27.0,31.0,78,-0.01,,,0.00,Weather View 32 v70,2013-06-29 10:22:00,
2013-06-29 00:27:00,70.9,64.0,30.00,North,351,19.0,31.0,79,-0.01,,,0.00,Weather View 32 v70,2013-06-29 10:27:00,
2013-06-29 00:32:00,71.4,63.8,29.98,NNW,330,26.0,31.0,77,-0.01,,,0.00,Weather View 32 v70,2013-06-29 10:32:00,
2013-06-29 00:37:00,71.3,63.3,29.98,NNW,347,31.0,31.0,76,-0.01,,,0.00,Weather View 32 v70,2013-06-29 10:37:00,
2013-06-29 00:42:00,71.2,63.6,29.99,NNE,24,16.0,39.0,77,-0.01,,,0.00,Weather View 32 v70,2013-06-29 10:42:00,
2013-06-29 00:47:00,71.2,63.6,29.99,North,358,21.0,39.0,77,-0.01,,,0.00,Weather View 32 v70,2013-06-29 10:47:00,
2013-06-29 00:52:00,71.0,62.6,29.98,North,3,23.0,39.0,75,-0.01,,,0.00,Weather View 32 v70,2013-06-29 10:52:00,
2013-06-29 00:57:00,71.5,61.6,29.99,NNW,343,17.0,39.0,71,-0.01,,,0.00,Weather View 32 v70,2013-06-29 10:57:00,
2013-06-29 01:02:00,72.0,61.6,29.97,North,1,32.0,39.0,70,0.00,,,0.00,Weather View 32 v70,2013-06-29 11:02:00,
2013-06-29 01:07:00,72.1,62.1,29.97,North,1,23.0,39.0,71,0.00,,,0.00,Weather View 32 v70,2013-06-29 11:07:00,
2013-06-29 01:12:00,72.0,62.0,29.97,NNE,25,18.0,39.0,71,0.00,,,0.00,Weather View 32 v70,2013-06-29 11:12:00,
2013-06-29 01:17:00,71.7,61.8,29.98,NNW,343,17.0,39.0,71,0.00,,,0.00,Weather View 32 v70,2013-06-29 11:17:00,
2013-06-29 01:22:00,71.4,62.3,29.97,North,4,32.0,39.0,73,0.00,,,0.00,Weather View 32 v70,2013-06-29 11:22:00,
2013-06-29 01:27:00,71.5,61.6,29.97,North,1,23.0,39.0,71,0.00,,,0.00,Weather View 32 v70,2013-06-29 11:27:00,
2013-06-29 01:32:00,71.4,62.3,29.96,North,355,22.0,39.0,73,0.00,,,0.00,Weather View 32 v70,2013-06-29 11:32:00,
2013-06-29 01:37:00,71.0,63.0,29.96,NE,40,22.0,39.0,76,0.00,,,0.00,Weather View 32 v70,2013-06-29 11:37:00,
2013-06-29 01:42:00,70.7,63.1,29.97,North,355,32.0,37.0,77,0.00,,,0.00,Weather View 32 v70,2013-06-29 11:42:00,
2013-06-29 01:47:00,70.6,63.0,29.97,North,351,27.0,37.0,77,0.00,,,0.00,Weather View 32 v70,2013-06-29 11:47:00,
2013-06-29 01:52:00,70.8,62.5,29.96,NW,315,26.0,37.0,75,0.00,,,0.00,Weather View 32 v70,2013-06-29 11:52:00,
2013-06-29 01:57:00,71.0,62.6,29.96,North,2,20.0,37.0,75,0.00,,,0.00,Weather View 32 v70,2013-06-29 11:57:00,
2013-06-29 02:02:00,70.8,63.2,29.96,North,359,19.0,37.0,77,0.00,,,0.00,Weather View 32 v70,2013-06-29 12:02:00,
2013-06-29 02:07:00,70.4,63.2,29.95,North,360,20.0,37.0,78,0.00,,,0.00,Weather View 32 v70,2013-06-29 12:07:00,
2013-06-29 02:12:00,70.4,63.6,29.96,North,353,26.0,37.0,79,0.00,,,0.00,Weather View 32 v70,2013-06-29 12:12:00,
2013-06-29 02:17:00,70.2,63.7,29.96,North,6,22.0,37.0,80,0.00,,,0.00,Weather View 32 v70,2013-06-29 12:17:00,
2013-06-29 02:22:00,70.1,64.0,29.96,North,1,21.0,37.0,81,0.00,,,0.00,Weather View 32 v70,2013-06-29 12:22:00,
2013-06-29 02:27:00,69.9,63.4,29.94,NNW,345,32.0,37.0,80,0.00,,,0.00,Weather View 32 v70,2013-06-29 12:27:00,
2013-06-29 02:32:00,70.4,62.8,29.96,NNE,26,15.0,37.0,77,0.00,,,0.00,Weather View 32 v70,2013-06-29 12:32:00,
2013-06-29 02:37:00,70.4,62.4,29.95,WNW,302,23.0,37.0,76,0.00,,,0.00,Weather View 32 v70,2013-06-29 12:37:00,
2013-06-29 02:42:00,70.4,62.4,29.96,NNW,340,19.0,36.0,76,0.00,,,0.00,Weather View 32 v70,2013-06-29 12:42:00,
2013-06-29 02:47:00,70.9,61.0,29.96,North,353,17.0,36.0,71,0.00,,,0.00,Weather View 32 v70,2013-06-29 12:47:00,
2013-06-29 02:52:00,70.7,62.4,29.96,North,357,18.0,35.0,75,0.00,,,0.00,Weather View 32 v70,2013-06-29 12:52:00,
2013-06-29 02:57:00,70.2,62.6,29.96,North,360,22.0,35.0,77,0.00,,,0.00,Weather View 32 v70,2013-06-29 12:57:00,
2013-06-29 03:02:00,69.9,62.7,29.96,NNW,348,19.0,35.0,78,0.00,,,0.00,Weather View 32 v70,2013-06-29 13:02:00,
2013-06-29 03:07:00,69.8,62.2,29.95,North,350,14.0,35.0,77,0.00,,,0.00,Weather View 32 v70,2013-06-29 13:07:00,
2013-06-29 03:12:00,69.8,61.5,29.96,North,4,20.0,35.0,75,0.00,,,0.00,Weather View 32 v70,2013-06-29 13:12:00,
2013-06-29 03:17:00,70.0,62.1,29.96,NW,310,15.0,33.0,76,0.00,,,0.00,Weather View 32 v70,2013-06-29 13:17:00,
2013-06-29 03:22:00,70.0,60.9,29.96,North,358,13.0,33.0,73,0.00,,,0.00,Weather View 32 v70,2013-06-29 13:22:00,
2013-06-29 03:27:00,70.5,59.8,29.96,NNW,339,16.0,33.0,69,0.00,,,0.00,Weather View 32 v70,2013-06-29 13:27:00,
2013-06-29 03:32:00,70.4,60.1,29.96,North,353,20.0,32.0,70,0.00,,,0.00,Weather View 32 v70,2013-06-29 13:32:00,
2013-06-29 03:37:00,70.2,60.3,29.95,NNW,330,19.0,32.0,71,0.00,,,0.00,Weather View 32 v70,2013-06-29 13:37:00,
2013-06-29 03:42:00,70.1,60.2,29.95,NW,326,20.0,32.0,71,0.00,,,0.00,Weather View 32 v70,2013-06-29 13:42:00,
2013-06-29 03:47:00,70.2,60.7,29.95,NNW,328,7.0,33.0,72,0.00,,,0.00,Weather View 32 v70,2013-06-29 13:47:00,
2013-06-29 03:52:00,70.4,60.1,29.95,NNW,343,24.0,33.0,70,0.00,,,0.00,Weather View 32 v70,2013-06-29 13:52:00,
2013-06-29 03:57:00,70.4,59.7,29.96,North,355,21.0,36.0,69,0.00,,,0.00,Weather View 32 v70,2013-06-29 13:57:00,
2013-06-29 04:02:00,70.3,60.0,29.96,North,359,21.0,36.0,70,0.00,,,0.00,Weather View 32 v70,2013-06-29 14:02:00,
2013-06-29 04:07:00,70.4,60.1,29.96,NNW,347,16.0,36.0,70,0.00,,,0.00,Weather View 32 v70,2013-06-29 14:07:00,
2013-06-29 04:12:00,70.1,60.6,29.96,NNE,27,11.0,36.0,72,0.00,,,0.00,Weather View 32 v70,2013-06-29 14:12:00,
2013-06-29 04:17:00,70.1,61.4,29.94,NNW,340,23.0,36.0,74,0.00,,,0.00,Weather View 32 v70,2013-06-29 14:17:00,
2013-06-29 04:22:00,69.9,62.0,29.95,North,355,20.0,36.0,76,0.00,,,0.00,Weather View 32 v70,2013-06-29 14:22:00,
2013-06-29 04:27:00,69.8,62.6,29.95,North,349,23.0,36.0,78,0.00,,,0.00,Weather View 32 v70,2013-06-29 14:27:00,
2013-06-29 04:32:00,69.8,62.6,29.95,NNW,327,12.0,36.0,78,0.00,,,0.00,Weather View 32 v70,2013-06-29 14:32:00,
2013-06-29 04:37:00,69.7,62.9,29.94,NNW,340,26.0,37.0,79,0.00,,,0.00,Weather View 32 v70,2013-06-29 14:37:00,
2013-06-29 04:42:00,69.7,62.9,29.96,NW,316,21.0,37.0,79,0.00,,,0.00,Weather View 32 v70,2013-06-29 14:42:00,
2013-06-29 04:47:00,69.6,63.1,29.96,North,351,21.0,37.0,80,0.00,,,0.00,Weather View 32 v70,2013-06-29 14:47:00,
2013-06-29 04:52:00,69.5,63.4,29.97,North,7,21.0,37.0,81,0.00,,,0.00,Weather View 32 v70,2013-06-29 14:52:00,
2013-06-29 04:57:00,69.4,63.3,29.96,NNW,328,27.0,37.0,81,0.00,,,0.00,Weather View 32 v70,2013-06-29 14:57:00,
2013-06-29 05:02:00,69.5,63.4,29.96,NNW,337,14.0,37.0,81,0.00,,,0.00,Weather View 32 v70,2013-06-29 15:02:00,
2013-06-29 05:07:00,69.7,63.9,29.97,NNW,330,18.0,37.0,82,0.00,,,0.00,Weather View 32 v70,2013-06-29 15:07:00,
2013-06-29 05:12:00,69.7,63.6,29.97,NNE,22,10.0,37.0,81,0.00,,,0.00,Weather View 32 v70,2013-06-29 15:12:00,
2013-06-29 05:17:00,69.7,63.9,29.96,North,349,20.0,37.0,82,0.00,,,0.00,Weather View 32 v70,2013-06-29 15:17:00,
2013-06-29 05:22:00,69.8,64.0,29.96,NNE,12,15.0,37.0,82,0.00,,,0.00,Weather View 32 v70,2013-06-29 15:22:00,
2013-06-29 05:27:00,69.8,63.7,29.97,NNW,332,18.0,37.0,81,0.00,,,0.00,Weather View 32 v70,2013-06-29 15:27:00,
2013-06-29 05:32:00,69.8,64.0,29.96,NW,325,13.0,37.0,82,0.00,,,0.00,Weather View 32 v70,2013-06-29 15:32:00,
2013-06-29 05:37:00,69.8,64.0,29.97,North,359,14.0,37.0,82,0.00,,,0.00,Weather View 32 v70,2013-06-29 15:37:00,
2013-06-29 05:42:00,69.8,63.7,29.97,NNW,336,21.0,30.0,81,0.00,,,0.00,Weather View 32 v70,2013-06-29 15:42:00,
2013-06-29 05:47:00,69.9,64.1,29.97,NNW,332,25.0,31.0,82,0.00,,,0.00,Weather View 32 v70,2013-06-29 15:47:00,
2013-06-29 05:52:00,69.8,64.0,29.98,NNE,22,12.0,31.0,82,0.00,,,0.00,Weather View 32 v70,2013-06-29 15:52:00,
2013-06-29 05:58:00,69.8,63.7,29.98,WNW,290,6.0,31.0,81,0.00,,,0.00,Weather View 32 v70,2013-06-29 15:58:00,
2013-06-29 06:03:00,69.7,63.6,29.97,NW,314,21.0,31.0,81,0.00,,,0.00,Weather View 32 v70,2013-06-29 16:03:00,
2013-06-29 06:08:00,69.7,63.2,29.99,North,6,13.0,31.0,80,0.00,,,0.00,Weather View 32 v70,2013-06-29 16:08:00,
2013-06-29 06:13:00,69.8,62.6,29.98,NNW,337,17.0,31.0,78,0.00,,,0.00,Weather View 32 v70,2013-06-29 16:13:00,
2013-06-29 06:18:00,69.9,62.3,29.99,North,360,15.0,31.0,77,0.00,,,0.00,Weather View 32 v70,2013-06-29 16:18:00,
2013-06-29 06:23:00,70.1,62.9,29.97,NW,307,18.0,31.0,78,0.00,,,0.00,Weather View 32 v70,2013-06-29 16:23:00,
2013-06-29 06:28:00,70.2,63.4,29.98,North,349,17.0,31.0,79,0.00,,,0.00,Weather View 32 v70,2013-06-29 16:28:00,
2013-06-29 06:33:00,70.3,63.8,29.97,North,360,20.0,31.0,80,0.00,,,0.00,Weather View 32 v70,2013-06-29 16:33:00,
2013-06-29 06:38:00,70.4,63.9,29.97,NW,320,23.0,31.0,80,0.00,,,0.00,Weather View 32 v70,2013-06-29 16:38:00,
2013-06-29 06:43:00,70.6,63.4,29.97,NNE,13,15.0,31.0,78,0.00,,,0.00,Weather View 32 v70,2013-06-29 16:43:00,
2013-06-29 06:48:00,70.8,62.5,29.98,NNW,347,29.0,32.0,75,0.00,,,0.00,Weather View 32 v70,2013-06-29 16:48:00,
2013-06-29 06:53:00,71.3,61.8,29.98,NNE,31,18.0,32.0,72,0.00,,,0.00,Weather View 32 v70,2013-06-29 16:53:00,
2013-06-29 06:58:00,71.8,61.5,29.99,NNW,345,6.0,32.0,70,0.00,,,0.00,Weather View 32 v70,2013-06-29 16:58:00,
2013-06-29 07:03:00,72.2,61.8,29.98,North,358,12.0,32.0,70,0.00,,,0.00,Weather View 32 v70,2013-06-29 17:03:00,
2013-06-29 07:08:00,72.0,61.6,29.99,NNW,329,10.0,32.0,70,0.00,,,0.00,Weather View 32 v70,2013-06-29 17:08:00,
2013-06-29 07:13:00,72.1,61.7,29.99,NNE,12,21.0,32.0,70,0.00,,,0.00,Weather View 32 v70,2013-06-29 17:13:00,
2013-06-29 07:18:00,72.3,61.9,29.99,North,360,24.0,32.0,70,0.00,,,0.00,Weather View 32 v70,2013-06-29 17:18:00,
2013-06-29 07:23:00,72.1,61.7,29.99,NNE,20,11.0,35.0,70,0.00,,,0.00,Weather View 32 v70,2013-06-29 17:23:00,
2013-06-29 07:28:00,72.1,61.7,29.99,North,359,17.0,35.0,70,0.00,,,0.00,Weather View 32 v70,2013-06-29 17:28:00,
2013-06-29 07:33:00,72.3,61.5,29.99,NNE,22,25.0,35.0,69,0.00,,,0.00,Weather View 32 v70,2013-06-29 17:33:00,
2013-06-29 07:38:00,72.0,61.6,29.99,North,11,14.0,35.0,70,0.00,,,0.00,Weather View 32 v70,2013-06-29 17:38:00,
2013-06-29 07:43:00,72.2,62.2,29.99,North,4,16.0,35.0,71,0.00,,,0.00,Weather View 32 v70,2013-06-29 17:43:00,
2013-06-29 07:49:00,71.6,62.8,30.00,NNE,30,23.0,35.0,74,0.00,,,0.00,Weather View 32 v70,2013-06-29 17:49:00,
2013-06-29 07:55:00,71.6,62.8,30.00,North,358,21.0,35.0,74,0.00,,,0.00,Weather View 32 v70,2013-06-29 17:55:00,
2013-06-29 07:56:00,71.6,62.8,30.00,NNE,24,17.0,35.0,74,0.00,,,0.00,Weather View 32 v70,2013-06-29 17:56:00,
2013-06-29 08:01:00,71.7,62.9,29.99,NNE,18,21.0,35.0,74,0.00,,,0.00,Weather View 32 v70,2013-06-29 18:01:00,
2013-06-29 08:07:00,72.2,63.4,30.00,NNW,347,18.0,35.0,74,0.00,,,0.00,Weather View 32 v70,2013-06-29 18:07:00,
2013-06-29 08:12:00,72.1,63.3,30.01,NNW,339,21.0,35.0,74,0.00,,,0.00,Weather View 32 v70,2013-06-29 18:12:00,
2013-06-29 08:15:00,72.1,63.3,29.99,NW,312,9.0,35.0,74,0.00,,,0.00,Weather View 32 v70,2013-06-29 18:15:00,
2013-06-29 08:18:00,72.7,63.5,30.00,NNE,15,22.0,35.0,73,0.00,,,0.00,Weather View 32 v70,2013-06-29 18:18:00,
2013-06-29 08:23:00,72.0,63.2,30.00,NNE,17,14.0,32.0,74,0.00,,,0.00,Weather View 32 v70,2013-06-29 18:23:00,
2013-06-29 08:29:00,72.0,63.2,30.00,NNE,16,14.0,32.0,74,0.00,,,0.00,Weather View 32 v70,2013-06-29 18:29:00,
2013-06-29 08:34:00,72.4,63.2,29.99,NNE,18,19.0,32.0,73,0.00,,,0.00,Weather View 32 v70,2013-06-29 18:34:00,
2013-06-29 08:40:00,72.4,63.2,29.99,North,358,20.0,32.0,73,0.00,,,0.00,Weather View 32 v70,2013-06-29 18:40:00,
2013-06-29 08:45:00,73.3,64.1,30.00,NNE,12,8.0,32.0,73,0.00,,,0.00,Weather View 32 v70,2013-06-29 18:45:00,
2013-06-29 08:51:00,73.2,64.0,30.00,NNE,25,19.0,31.0,73,0.00,,,0.00,Weather View 32 v70,2013-06-29 18:51:00,
2013-06-29 08:56:00,72.9,64.5,30.00,NNE,22,10.0,30.0,75,0.00,,,0.00,Weather View 32 v70,2013-06-29 18:56:00,
2013-06-29 09:01:00,73.3,64.9,30.00,NNE,16,15.0,30.0,75,0.00,,,0.00,Weather View 32 v70,2013-06-29 19:01:00,
2013-06-29 09:05:00,73.0,64.6,30.01,NW,326,20.0,30.0,75,0.00,,,0.00,Weather View 32 v70,2013-06-29 19:05:00,
2013-06-29 09:08:00,72.6,64.6,30.00,NW,314,12.0,30.0,76,0.00,,,0.00,Weather View 32 v70,2013-06-29 19:08:00,
2013-06-29 09:13:00,72.4,64.4,30.00,NNW,334,15.0,26.0,76,0.00,,,0.00,Weather View 32 v70,2013-06-29 19:13:00,
2013-06-29 09:18:00,72.6,64.9,30.00,NNE,17,17.0,26.0,77,0.00,,,0.00,Weather View 32 v70,2013-06-29 19:18:00,
2013-06-29 09:23:00,72.6,64.9,30.00,NNE,12,15.0,26.0,77,0.00,,,0.00,Weather View 32 v70,2013-06-29 19:23:00,
2013-06-29 09:28:00,73.0,65.7,29.99,NNE,13,22.0,26.0,78,0.00,,,0.00,Weather View 32 v70,2013-06-29 19:28:00,
2013-06-29 09:33:00,72.8,65.5,29.99,North,2,20.0,26.0,78,0.00,,,0.00,Weather View 32 v70,2013-06-29 19:33:00,
2013-06-29 09:38:00,73.1,65.8,30.00,NNW,339,10.0,26.0,78,0.00,,,0.00,Weather View 32 v70,2013-06-29 19:38:00,
2013-06-29 09:43:00,74.0,66.3,30.00,NE,35,9.0,26.0,77,0.00,,,0.00,Weather View 32 v70,2013-06-29 19:43:00,
2013-06-29 09:48:00,74.9,66.8,30.00,North,349,11.0,26.0,76,0.00,,,0.00,Weather View 32 v70,2013-06-29 19:48:00,
2013-06-29 09:53:00,75.0,66.5,29.99,North,357,13.0,26.0,75,0.00,,,0.00,Weather View 32 v70,2013-06-29 19:53:00,
2013-06-29 09:58:00,75.1,64.2,29.99,NNE,17,12.0,26.0,69,0.00,,,0.00,Weather View 32 v70,2013-06-29 19:58:00,
2013-06-29 10:03:00,74.8,64.7,29.99,North,6,14.0,26.0,71,0.00,,,0.00,Weather View 32 v70,2013-06-29 20:03:00,
2013-06-29 10:08:00,74.9,65.6,29.99,North,4,20.0,26.0,73,0.00,,,0.00,Weather View 32 v70,2013-06-29 20:08:00,
2013-06-29 10:13:00,75.0,64.9,29.99,North,10,19.0,26.0,71,0.00,,,0.00,Weather View 32 v70,2013-06-29 20:13:00,
2013-06-29 10:18:00,74.9,65.2,30.00,North,358,15.0,26.0,72,0.00,,,0.00,Weather View 32 v70,2013-06-29 20:18:00,
2013-06-29 10:23:00,75.4,64.1,30.00,NE,41,9.0,26.0,68,0.00,,,0.00,Weather View 32 v70,2013-06-29 20:23:00,
2013-06-29 10:28:00,74.9,64.0,29.99,NNE,26,16.0,26.0,69,0.00,,,0.00,Weather View 32 v70,2013-06-29 20:28:00,
2013-06-29 10:33:00,75.3,64.0,29.99,NNW,330,18.0,25.0,68,0.00,,,0.00,Weather View 32 v70,2013-06-29 20:33:00,
2013-06-29 10:38:00,75.4,64.1,29.99,NE,37,17.0,25.0,68,0.00,,,0.00,Weather View 32 v70,2013-06-29 20:38:00,
2013-06-29 10:43:00,75.3,64.0,29.99,NNE,14,15.0,25.0,68,0.00,,,0.00,Weather View 32 v70,2013-06-29 20:43:00,
2013-06-29 10:48:00,75.3,64.0,29.99,NNW,343,21.0,25.0,68,0.00,,,0.00,Weather View 32 v70,2013-06-29 20:48:00,
2013-06-29 10:53:00,74.8,63.9,30.00,NNE,29,22.0,26.0,69,0.00,,,0.00,Weather View 32 v70,2013-06-29 20:53:00,